Regional Weather Roundup
Issued by NWS

Home | Current Version | Previous Version | Text Only | Print | Product List | Glossary On
Versions: 1 2 3 4 5 6 7 8 9 10 11 12 13 14 15 16 17 18 19 20 21 22 23 24 25 26 27 28 29 30 31 32 33 34 35 36 37 38 39 40 41 42 43 44 45 46 47 48 49 50
000
ASUS43 KBIS 270610
RWRND

NORTH DAKOTA REGIONAL WEATHER ROUNDUP
NATIONAL WEATHER SERVICE BISMARCK ND
100 AM CDT FRI APR 27 2018

NOTE: "FAIR" INDICATES FEW OR NO CLOUDS BELOW 12,000 FEET WITH NO
SIGNIFICANT WEATHER AND/OR OBSTRUCTIONS TO VISIBILITY.


NDZ001>003-009>011-017-270700-
NORTHWEST NORTH DAKOTA

CITY           SKY/WX    TMP DP  RH WIND       PRES   REMARKS
WILLISTON      CLEAR     54  31  41 N16       29.99R
6HR MIN TEMP:  50; 6HR MAX TEMP:  71;

MINOT          CLEAR     52  31  44 NW15      29.91R
MINOT AFB      CLEAR     48  31  52 NW12      29.90R
$$

NDZ018>021-031>035-040>046-270700-
SOUTHWEST NORTH DAKOTA

CITY           SKY/WX    TMP DP  RH WIND       PRES   REMARKS
BISMARCK       CLEAR     50  32  50 W10       29.91F
6HR MIN TEMP:  47; 6HR MAX TEMP:  68;

DICKINSON      CLEAR     49  31  49 W13       29.96F
GARRISON         N/A     47  31  53 NW12      29.92R
6HR MIN TEMP:  47; 6HR MAX TEMP:  65;

HETTINGER ARPT CLEAR     42  33  70 NW9       30.02F
$$

NDZ004>008-012>016-024-026-027-054-270700-
NORTHEAST NORTH DAKOTA

CITY           SKY/WX    TMP DP  RH WIND       PRES   REMARKS
GRAND FORKS    FAIR      45  37  73 W8        29.73F
GRND FRKS AFB  FAIR      48  32  53 W8        29.74F
DEVILS LAKE    FAIR      46  31  55 W12       29.82S
$$

NDZ022-023-025-028>030-036>039-047>053-270700-
SOUTHEAST NORTH DAKOTA

CITY           SKY/WX    TMP DP  RH WIND       PRES   REMARKS
FARGO          MOCLDY    50  33  52 S15       29.78F
6HR MIN TEMP:  49; 6HR MAX TEMP:  60;

JAMESTOWN      CLEAR     52  30  43 W15       29.82F
$$





USA.gov is the U.S. government's official web portal to all federal, state and local government web resources and services.